Regional Weather Roundup
Issued by NWS Cleveland, OH

Home | Current Version | Previous Version | Text Only | Print | Product List | Glossary Off
Versions: 1 2 3 4 5 6 7 8 9 10 11 12 13 14 15 16 17 18 19 20 21 22 23 24 25 26 27 28 29 30 31 32 33 34 35 36 37 38 39 40 41 42 43 44 45 46 47 48 49 50

000
ASUS41 KCLE 030102
RWRCLE
OHIO REGIONAL WEATHER ROUNDUP
NATIONAL WEATHER SERVICE CLEVELAND, OH
900 PM EDT THU JUL 02 2015

NOTE: "FAIR" INDICATES FEW OR NO CLOUDS BELOW 12,000 FEET WITH NO
SIGNIFICANT WEATHER AND/OR OBSTRUCTIONS TO VISIBILITY.

OHZ001>008-015>018-024>027-034-035-043-044-030200-
   NORTHWEST OHIO

CITY           SKY/WX    TMP DP  RH WIND       PRES   REMARKS
DEFIANCE       PTCLDY    68  55  63 E6        29.97R
FINDLAY        CLEAR     68  54  60 NE9       29.96R
TOLEDO EXPRESS CLEAR     66  53  63 E3        29.97R
TOLEDO EXEC    CLEAR     68  54  60 E3        29.98R
LIMA           CLOUDY    67  57  70 NE6       29.96R
$$

OHZ009>014-019>023-028>033-038-089-030200-
   NORTHEAST OHIO

CITY           SKY/WX    TMP DP  RH WIND       PRES   REMARKS
CLE-HOPKINS    PTCLDY    65  55  70 N8        29.99R
CLE-LAKEFRONT  CLEAR     67  57  70 NE9       29.96S
CUY CO. ARPT   CLEAR     64  55  72 E10       29.97F
LORAIN-ELYRIA  CLEAR     63  54  72 NE5       29.98R
ASHTABULA      CLEAR     62  53  72 N3        29.99R
AKRON-CANTON   PTCLDY    67  55  65 N7        29.96R
WOOSTER        CLEAR     63  56  78 N7        29.97R
MANSFIELD      PTCLDY    64  54  69 N8        29.98R
YOUNGSTOWN     PTCLDY    64  53  67 N8        29.96R
$$

OHZ042-051>053-060>062-070>072-077>081-030200-
  SOUTHWEST OHIO

CITY           SKY/WX    TMP DP  RH WIND       PRES   REMARKS
CINC-COVINGTON HVY RAIN  69  68  96 E7        29.89R FOG
CINC-LUNKEN    CLOUDY    71  68  90 CALM      29.89S
HAMILTON       CLOUDY    74  66  76 E5        29.90R
DAYTON         CLOUDY    71  63  75 NE7       29.93S
WRIGHT-PAT AFB PTCLDY    70  62  76 NE8       29.91F
DAYTON GENERAL MOCLDY    71  62  73 E8        29.91S
WILMINGTON     CLOUDY    69  63  81 NE8       29.91S
$$

OHZ036-037-039>041-045>050-054>059-063>069-073>076-082>088-030200-
  CENTRAL AND SOUTHEAST OHIO

CITY           SKY/WX    TMP DP  RH WIND       PRES   REMARKS
COLUMBUS       MOCLDY    71  61  70 CALM      29.93R
OSU AIRPORT    PTCLDY    69  61  75 NE3       29.94R
BOLTON FIELD   NOT AVBL
RICKENBACK AFB NOT AVBL
NEWARK         PTCLDY    69  61  75 CALM      29.93S
MARION         PTCLDY    65  56  72 N9        29.96R
LANCASTER      CLOUDY    68  64  87 CALM      29.93S
ZANESVILLE     NOT AVBL
NEW PHILLY     CLEAR     67  62  84 CALM      29.94S
$$



USA.gov is the U.S. government's official web portal to all federal, state and local government web resources and services.